SL-14 R/B, 23793

Orbit data source: Space-Track

SL-14 R/B, 23793 is space debris in LEO originally from a launch on Mon, 19 Feb 1996 UTC launched from the Plesetsk Missile And Space Complex (PKMTR). Debris objects in space refer to the collection of defunct objects orbiting the Earth. Examples of debris include non-operational satellites, rocket bodies, and fragments generated from explosions, collisions, or faulty payload assembly.

Loading next visibility...
Identifier
23793, 1996-009G
Orbit
LEO
Country
Flag of CISCIS
Related business
Manufacturer
Yuzhnoe
Mission
Spacecraft
Bus & Motor
S5M, Unknown motor
Mass
1,600 kg wet, 1,600 kg dry
Launch date (UTC)
1996-02-19 (30 years ago)
Launch vehicle
Unknown
Launch site
Plesetsk Missile And Space Complex (PKMTR)
Object type
Payload
Rocket body
Debris
Shape & HBR
Cyl, 1.4 m
Radar Cross Section
7.351 m², Large (>1 m²)

Expand to show TLE details & history
Last TLE update: 17 hours ago

TLE from 17 hours ago
0 SL-14 R/B
1 23793U 96009G   25309.19575924  .00000047  00000-0  21945-3 0  9994
2 23793  82.5725 189.7911 0045885 109.7473   9.2842 12.55089499361256
Epoch: 2025-11-05T04:41Z
TLE epoch observation values (Epoch: 2025-11-05T04:41:53.598Z)
Latitude
60.11959°
Longitude
-118.40233°
Altitude
1,418.041 km
Speed
7.173 km/s
True Right ascension
23h 46m 58s
True Declination
59° 59' 00"
Sunlit
Object was in full shadow at epoch
Visualization orbit readout
Latitude
Unknown
Longitude
Unknown
Altitude
Unknown
Speed
Unknown
Apparent Right ascension
Unknown
Apparent Declination
Unknown
Sunlit
N/A
Visualization observer readout
Local Sidereal Time
18:04:24
Azimuth
Unknown
Elevation
Unknown
Doppler factor
Unknown
Orbital elements
Apogee altitude
1,476.486 km
Perigee altitude
1,404.734 km
Semi-major axis
7,818.747 km
Eccentricity
0.00459
Inclination
82.5725°
RAAN
189.7911°
Arg. of periapsis
109.7473°
True anomaly
9.36951°
Mean anomaly
9.2842°
Eccentric anomaly
9.32681°
Mean motion
3.13933 °/min
Orbital period
114.67 mins
BSTAR
0.00021945
Loading maneuver chart data...
Computing Atmospheric mass density...
Loading historical data...
Loading historical data...
Loading historical data...
Loading historical data...
Loading historical data...
Loading historical data...
Loading historical data...

Documentation

Showing up to 5 results
|